COSMOS 2251 DEB, 35462

Orbit data source: Space-Track

COSMOS 2251 DEB, 35462 is space debris in LEO originally from a launch on Wed, 16 Jun 1993 UTC launched from the Plesetsk Missile And Space Complex (PKMTR). The debris from Iridium 33, an American commercial communications satellite, has been tracked extensively since its accidental collision with the defunct Russian satellite Cosmos 2251 in 2009. This event, occurring at high speed in low Earth orbit (LEO), generated thousands of pieces of space debris, significantly increasing the risk of further collisions. The Iridium 33 debris cloud has impacted space traffic management and orbital debris mitigation strategies, making it a subject of ongoing study in space situational awareness.

Loading next visibility...
Identifier
35462, 1993-036ALG
Orbit
LEO
Country
Flag of CISCIS
Related business
Manufacturer
Unknown
Mission
Spacecraft
Bus & Motor
Unknown
Mass
Unknown
Launch date (UTC)
1993-06-16 (33 years ago)
Launch vehicle
Unknown
Launch site
Plesetsk Missile And Space Complex (PKMTR)
Object type
Payload
Rocket body
Debris
Shape & HBR
Unknown shape, 0.1 m
Radar Cross Section
Small (<0.1 m²)

Expand to show TLE details & history
Last TLE update: 11 hours ago

TLE from 11 hours ago
0 COSMOS 2251 DEB
1 35462U 93036ALG 26257.35373597  .00001871  00000-0  69467-3 0  9997
2 35462  74.0334 127.2939 0083626  97.1904 263.8763 14.30927616703218
Epoch: 2026-09-14T08:29Z
TLE epoch observation values (Epoch: 2026-09-14T08:29:22.787Z)
Latitude
-0.00003°
Longitude
6.6137°
Altitude
798.126 km
Speed
7.451 km/s
True Right ascension
08h 29m 10s
True Declination
0° 00' 00"
Sunlit
Object was in daylight at epoch
Visualization orbit readout
Latitude
Unknown
Longitude
Unknown
Altitude
Unknown
Speed
Unknown
Apparent Right ascension
Unknown
Apparent Declination
Unknown
Sunlit
N/A
Visualization observer readout
Local Sidereal Time
12:15:14
Azimuth
Unknown
Elevation
Unknown
Doppler factor
Unknown
Orbital elements
Apogee altitude
846.174 km
Perigee altitude
726.348 km
Semi-major axis
7,164.398 km
Eccentricity
0.00836
Inclination
74.0334°
RAAN
127.2939°
Arg. of periapsis
97.1904°
True anomaly
262.92459°
Mean anomaly
263.8763°
Eccentric anomaly
263.40033°
Mean motion
3.5791 °/min
Orbital period
100.58 mins
BSTAR
0.00069467
Loading maneuver chart data...
Computing Atmospheric mass density...

Documentation

Showing up to 5 results
|